Powrót do katalogu

FREGAT DEB

LostUNKNOWN
NORAD 46010·DEBRIS·🇷🇺 Russia

Wystrzelony Jul 18, 2011 z Baikonur Cosmodrome

Loading…

Następne Przeloty (najbliższe 24 godziny)

TLE

NieaktualneSource: Space-Track

Epoka: Dec 8, 2025, 12:45 UTC

1 46010U 11037HM  25342.53139778  .00022193  00000-0  28059+0 0  9992
2 46010  51.3288  84.8661 1879613 173.1727 189.8995  9.77154317188624

Śledź FREGAT DEB w czasie rzeczywistym z AllMySat

Download on the App Store